Location: Dehesa de la Cepeda
(40.6574°N, 4.3013°W)
Time: 19:44:03
(UTC+00:00)

Vanguard 2 Rocket - Pass Details

Date: 11 August 2021
Orbit: 556 x 3324 km, 32.9° (Epoch: 19 September)

Event Time Altitude Azimuth Distance (km) Brightness Sun altitude
Rises 06:54:59 0° 261° (W) 3,797 9.4 15.9°
Reaches altitude 10° 06:58:22 10° 252° (WSW) 2,485 8.6 16.6°
Maximum altitude 07:03:10 31° 190° (S) 1,142 7.4 17.5°
Drops below altitude 10° 07:06:50 10° 126° (SE) 1,876 9.4 18.1°
Sets 07:09:02 0° 115° (ESE) 2,721 10.4 18.6°
